Regional Weather Roundup
Issued by NWS

Home | Current Version | Previous Version | Text Only | Print | Product List | Glossary Off
Versions: 1 2 3 4 5 6 7 8 9 10 11 12 13 14 15 16 17 18 19 20 21 22 23 24 25 26 27 28 29 30 31 32 33 34 35 36 37 38 39 40 41 42 43 44 45 46 47 48 49 50

000
ASUS45 KSLC 040910
RWRUT

UTAH REGIONAL WEATHER ROUNDUP
NATIONAL WEATHER SERVICE SALT LAKE CITY UT
300 AM MDT SAT JUL 04 2015

UTZ001>011-023>025-041000-

NORTHERN UTAH

CITY           SKY/WX    TMP DP  RH WIND       PRES   REMARKS
BRIGHAM CITY   MOCLDY    77  52  41 E3        29.92S
HILL AFB       MOCLDY    75  46  34 E14       29.95S
LOGAN          CLEAR     69  55  60 CALM      29.94S
OGDEN          MOCLDY    76  47  35 S9        29.91F
PROVO AIRPORT  PTCLDY    70  48  46 E3        29.95S
SALT LAKE CITY MOCLDY    83  49  30 SE3       29.89F
VERNAL         CLEAR     72  44  36 CALM      29.99S
WENDOVER       MOCLDY    88  43  20 NW9       29.92R
HEBER CITY     PTCLDY    59  45  58 CALM      30.07S
WEST JORDAN    CLEAR     79  46  31 CALM      29.95F

$$

UTZ012>022-026-027-041000-

SOUTHERN/CENTRAL UTAH

CITY           SKY/WX    TMP DP  RH WIND       PRES   REMARKS
BLANDING       CLOUDY    65  51  60 N3        30.20F
BRYCE CANYON   CLOUDY    63  49  60 SE7       30.25R
CEDAR CITY     CLOUDY    76  45  33 E3        30.07R
DELTA          PTCLDY    76  39  25 W8        29.96R
HANKSVILLE     CLOUDY    82  46  28 CALM      29.99R
MILFORD        CLOUDY    78  46  32 SW14      29.99S
MOAB/CYNLANDS  CLEAR     80  50  34 S9        29.96R
PRICE          MOCLDY    75  36  24 CALM      30.05S
ST GEORGE      MOSUNNY   86  52  30 S3        29.89R
KANAB          CLOUDY    72  61  68 CALM      30.11R

$$

REGIONAL REPORTS     COLORADO/ARIZONA

CITY           SKY/WX    TMP DP  RH WIND       PRES   REMARKS
CRAIG, CO      PTCLDY    54  45  71 CALM      30.11R
GRAND JUNCTION PTCLDY    74  50  42 E18       30.02R
RIFLE          PTCLDY    65  53  65 E5        30.10R
MONTROSE       PTCLDY    65  48  54 E7        30.15R
CORTEZ         PTCLDY    63  53  70 E3        30.16R
PAGE, AZ       CLOUDY    80  54  40 SE12      30.01R
GRAND CANYON   CLOUDY    62  56  80 N5        30.20F
KINGMAN        CLOUDY    82  53  36 SE15      29.95S
FLAGSTAFF      CLOUDY    58  57  97 N3        30.22F

$$

REGIONAL REPORTS    NEVADA/IDAHO/WYOMING

CITY           SKY/WX    TMP DP  RH WIND       PRES   REMARKS
LAS VEGAS, NV  MOCLDY    96  29   9 S16       29.75R HX  90
ELY            PTCLDY    57  48  72 S12       30.12F
ELKO           CLEAR     65  54  67 N5        30.03S
POCATELLO, ID  CLEAR     64  50  60 CALM      29.94F
BURLEY         PTCLDY    71  50  47 SW10      29.90F
EVANSTON, WY   PTCLDY    65  42  43 SE5       30.16F
ROCK SPRINGS   PTCLDY    69  39  33 CALM      30.12F
KEMMERER       PTCLDY    59  45  58 N6        30.18S

$$


USA.gov is the U.S. government's official web portal to all federal, state and local government web resources and services.